Grafton, ND

5:56 AM CDT on October 01, 2016 (GMT -0500)
Grafton Municipal

Weather History for KGAF - January, 2012

Change the Weather History Date:

Monday, January 16, 2012

  Actual Average Record
Temperature  
Mean Temperature 7 °F -  
Max Temperature 14 °F 14 °F 42 °F (1961)
Min Temperature 0 °F -3 °F -35 °F (1977)
Degree Days  
Heating Degree Days 58    
Moisture  
Dew Point 0 °F    
Average Humidity 75    
Maximum Humidity 79    
Minimum Humidity 72    
Precipitation  
Precipitation 0.00 in - - ()
Sea Level Pressure  
Sea Level Pressure 30.07 in    
Wind  
Wind Speed 14 mph (NNW)    
Max Wind Speed 20 mph    
Max Gust Speed 28 mph    
Visibility 10 miles    
Events      
Averages and records for this station are not official NWS values.
T = Trace of Precipitation, MM = Missing Value Source: NWS Daily Summary

Daily Weather History Graph

Daily Weather History Graph

Search for Another Location

Airport or City:

Trip Planner

Search our weather history database for the weather conditions in past years. The results will help you decide how hot, cold, wet, or windy it might be!

Date:

Astronomy

Jan. 16, 2012 Rise Set
Actual Time 8:15 AM CST 5:03 PM CST
Civil Twilight 7:40 AM CST 5:38 PM CST
Nautical Twilight 7:01 AM CST 6:17 PM CST
Astronomical Twilight 6:23 AM CST 6:54 PM CST
Moon 1:16 AM CST (1/16) 11:25 AM CST (1/16)
Length of Visible Light 9h 58m
Length of Day
8h 47m
Last Quarter, 46% of the Moon is Illuminated
Jan 16
Last Quarter
Jan 23
New
Jan 30
First Quarter
Feb 7
Full
Feb 14
Last Quarter

Hourly Weather History & Observations

Time (CST) Temp. Windchill Dew Point Humidity Pressure Visibility Wind Dir Wind Speed Gust Speed Precip Events Conditions
12:15 AM 14.0 °F -2.5 °F 6.8 °F 73% 29.83 in 10.0 mi NW 17.3 mph 21.9 mph N/A   Clear
12:35 AM 12.2 °F -4.3 °F 6.8 °F 79% 29.84 in 10.0 mi NW 16.1 mph - N/A   Clear
12:55 AM 12.2 °F -3.1 °F 6.8 °F 79% 29.86 in 10.0 mi NW 13.8 mph - N/A   Mostly Cloudy
1:15 AM 10.4 °F -6.6 °F 5.0 °F 79% 29.86 in 10.0 mi NW 16.1 mph 21.9 mph N/A   Mostly Cloudy
1:35 AM 10.4 °F -6.6 °F 5.0 °F 79% 29.88 in 10.0 mi NW 16.1 mph 23.0 mph N/A   Overcast
1:55 AM 10.4 °F -5.4 °F 5.0 °F 79% 29.91 in 10.0 mi NW 13.8 mph - N/A   Overcast
2:15 AM 10.4 °F -2.4 °F 3.2 °F 73% 29.93 in 10.0 mi NW 9.2 mph - N/A   Mostly Cloudy
2:35 AM 8.6 °F -3.7 °F 3.2 °F 79% 29.93 in 10.0 mi WNW 8.1 mph - N/A   Scattered Clouds
2:55 AM 10.4 °F -2.4 °F 3.2 °F 73% 29.95 in 10.0 mi WNW 9.2 mph - N/A   Mostly Cloudy
3:15 AM 10.4 °F -4.8 °F 5.0 °F 79% 29.95 in 10.0 mi NW 12.7 mph - N/A   Overcast
3:35 AM 10.4 °F -4.1 °F 5.0 °F 79% 29.96 in 10.0 mi WNW 11.5 mph - N/A   Overcast
3:55 AM 10.4 °F -1.5 °F 5.0 °F 79% 29.95 in 10.0 mi NW 8.1 mph - N/A   Overcast
4:15 AM 10.4 °F -4.1 °F 5.0 °F 79% 29.97 in 10.0 mi NW 11.5 mph - N/A   Overcast
4:35 AM 10.4 °F -4.1 °F 5.0 °F 79% 29.98 in 10.0 mi NNW 11.5 mph - N/A   Overcast
4:55 AM 8.6 °F -8.3 °F 3.2 °F 79% 29.97 in 10.0 mi North 15.0 mph 20.7 mph N/A   Overcast
5:15 AM 6.8 °F -6.9 °F 1.4 °F 79% 29.98 in 10.0 mi North 9.2 mph - N/A   Mostly Cloudy
5:35 AM 6.8 °F -6.9 °F 1.4 °F 79% 29.98 in 10.0 mi North 9.2 mph - N/A   Mostly Cloudy
5:55 AM 6.8 °F -8.6 °F 1.4 °F 79% 29.99 in 10.0 mi North 11.5 mph - N/A   Mostly Cloudy
6:15 AM 6.8 °F -11.8 °F -0.4 °F 72% 30.00 in 10.0 mi NNW 17.3 mph 21.9 mph N/A   Mostly Cloudy
6:35 AM 6.8 °F -11.3 °F -0.4 °F 72% 30.01 in 10.0 mi NNW 16.1 mph 21.9 mph N/A   Overcast
6:55 AM 6.8 °F -11.3 °F -0.4 °F 72% 30.02 in 10.0 mi NNW 16.1 mph 27.6 mph N/A   Overcast
7:15 AM 5.0 °F -13.6 °F -0.4 °F 78% 30.03 in 10.0 mi NNW 16.1 mph 23.0 mph N/A   Overcast
7:35 AM 5.0 °F -14.2 °F -0.4 °F 78% 30.04 in 10.0 mi NNW 17.3 mph 21.9 mph N/A   Overcast
7:55 AM 5.0 °F -12.3 °F -0.4 °F 78% 30.04 in 10.0 mi North 13.8 mph 19.6 mph N/A   Mostly Cloudy
8:15 AM 5.0 °F -12.3 °F -0.4 °F 78% 30.04 in 10.0 mi North 13.8 mph - N/A   Overcast
8:35 AM 5.0 °F -10.8 °F -0.4 °F 78% 30.06 in 10.0 mi NNW 11.5 mph - N/A   Mostly Cloudy
8:55 AM 5.0 °F -13.0 °F -0.4 °F 78% 30.06 in 10.0 mi North 15.0 mph 20.7 mph N/A   Scattered Clouds
9:15 AM 5.0 °F -14.7 °F -0.4 °F 78% 30.07 in 10.0 mi North 18.4 mph 21.9 mph N/A   Partly Cloudy
9:35 AM 5.0 °F -12.3 °F -0.4 °F 78% 30.08 in 10.0 mi North 13.8 mph - N/A   Clear
9:55 AM 5.0 °F -13.0 °F -0.4 °F 78% 30.09 in 10.0 mi North 15.0 mph 21.9 mph N/A   Partly Cloudy
10:15 AM 5.0 °F -14.2 °F -0.4 °F 78% 30.09 in 10.0 mi North 17.3 mph 20.7 mph N/A   Partly Cloudy
10:35 AM 5.0 °F -13.0 °F -0.4 °F 78% 30.11 in 9.0 mi North 15.0 mph - N/A   Mostly Cloudy
11:15 AM 5.0 °F -15.2 °F -2.2 °F 72% 30.12 in 10.0 mi North 19.6 mph - N/A   Partly Cloudy
11:35 AM 5.0 °F -14.7 °F -2.2 °F 72% 30.12 in 10.0 mi North 18.4 mph 25.3 mph N/A   Clear
11:55 AM 5.0 °F -15.2 °F -2.2 °F 72% 30.11 in 10.0 mi North 19.6 mph - N/A   Clear
12:15 PM 5.0 °F -15.2 °F -2.2 °F 72% 30.11 in 10.0 mi North 19.6 mph 24.2 mph N/A   Clear
12:35 PM 5.0 °F -13.6 °F -2.2 °F 72% 30.11 in 10.0 mi NNW 16.1 mph 21.9 mph N/A   Clear
12:55 PM 5.0 °F -13.0 °F -2.2 °F 72% 30.12 in 10.0 mi North 15.0 mph 24.2 mph N/A   Clear
1:15 PM 5.0 °F -13.6 °F -2.2 °F 72% 30.12 in 10.0 mi NNW 16.1 mph 21.9 mph N/A   Clear
1:35 PM 5.0 °F -13.6 °F -2.2 °F 72% 30.12 in 10.0 mi NNW 16.1 mph 23.0 mph N/A   Clear
1:55 PM 5.0 °F -14.2 °F -2.2 °F 72% 30.12 in 10.0 mi NNW 17.3 mph 24.2 mph N/A   Clear
2:15 PM 5.0 °F -14.7 °F -2.2 °F 72% 30.13 in 10.0 mi North 18.4 mph 23.0 mph N/A   Clear
2:35 PM 5.0 °F -13.6 °F -2.2 °F 72% 30.13 in 10.0 mi North 16.1 mph 21.9 mph N/A   Clear
2:55 PM 5.0 °F -12.3 °F -2.2 °F 72% 30.13 in 10.0 mi NNW 13.8 mph - N/A   Clear
3:15 PM 5.0 °F -13.0 °F -2.2 °F 72% 30.14 in 10.0 mi North 15.0 mph - N/A   Clear
3:35 PM 5.0 °F -13.6 °F -2.2 °F 72% 30.14 in 10.0 mi North 16.1 mph - N/A   Clear
3:55 PM 5.0 °F -13.6 °F -2.2 °F 72% 30.16 in 10.0 mi NNW 16.1 mph - N/A   Clear
4:15 PM 5.0 °F -13.0 °F -2.2 °F 72% 30.17 in 10.0 mi NNW 15.0 mph 19.6 mph N/A   Clear
4:35 PM 5.0 °F -12.3 °F -2.2 °F 72% 30.17 in 10.0 mi North 13.8 mph 17.3 mph N/A   Clear
4:55 PM 5.0 °F -12.3 °F -2.2 °F 72% 30.16 in 10.0 mi North 13.8 mph - N/A   Clear
5:15 PM 3.2 °F -15.3 °F -2.2 °F 78% 30.17 in 10.0 mi North 15.0 mph - N/A   Clear
5:35 PM 3.2 °F -14.6 °F -2.2 °F 78% 30.19 in 10.0 mi North 13.8 mph - N/A   Clear
5:55 PM 3.2 °F -11.3 °F -2.2 °F 78% 30.20 in 10.0 mi North 9.2 mph - N/A   Clear
6:35 PM 1.4 °F -13.5 °F -4.0 °F 78% 30.21 in 10.0 mi North 9.2 mph - N/A   Clear
6:55 PM 1.4 °F -13.5 °F -4.0 °F 78% 30.22 in 10.0 mi North 9.2 mph - N/A   Clear
7:15 PM 1.4 °F -15.3 °F -4.0 °F 78% 30.23 in 10.0 mi North 11.5 mph 17.3 mph N/A   Clear
7:35 PM -0.4 °F -17.6 °F -7.6 °F 72% 30.23 in 10.0 mi North 11.5 mph - N/A   Clear
7:55 PM -0.4 °F -17.6 °F -7.6 °F 72% 30.24 in 10.0 mi North 11.5 mph - N/A   Clear
8:15 PM -0.4 °F -18.4 °F -7.6 °F 72% 30.24 in 10.0 mi North 12.7 mph - N/A   Clear
8:35 PM -0.4 °F -16.7 °F -7.6 °F 72% 30.25 in 10.0 mi North 10.4 mph - N/A   Clear
8:55 PM -0.4 °F -16.7 °F -7.6 °F 72% 30.25 in 10.0 mi North 10.4 mph - N/A   Clear
9:15 PM -2.2 °F -18.0 °F -7.6 °F 78% 30.26 in 10.0 mi North 9.2 mph - N/A   Clear
9:35 PM -2.2 °F -18.9 °F -7.6 °F 78% 30.26 in 10.0 mi North 10.4 mph - N/A   Clear
9:55 PM -2.2 °F -18.9 °F -7.6 °F 78% 30.26 in 10.0 mi North 10.4 mph - N/A   Clear
10:15 PM -2.2 °F -18.9 °F -9.4 °F 71% 30.26 in 10.0 mi North 10.4 mph - N/A   Clear
10:35 PM -2.2 °F -18.0 °F -9.4 °F 71% 30.27 in 10.0 mi NNW 9.2 mph - N/A   Clear
10:55 PM -2.2 °F -18.9 °F -9.4 °F 71% 30.27 in 10.0 mi NNW 10.4 mph 16.1 mph N/A   Clear
11:15 PM -2.2 °F -18.9 °F -9.4 °F 71% 30.28 in 10.0 mi NNW 10.4 mph - N/A   Clear
11:35 PM -4.0 °F -20.2 °F -9.4 °F 78% 30.29 in 10.0 mi North 9.2 mph - N/A   Clear